Weather History for K3I2 - April, 2013

Change the Weather History Date:

Tuesday, April 2, 2013

  Actual Average (KHTS) Record (KHTS)
Temperature  
Mean Temperature 40 °F 52 °F  
Max Temperature 51 °F 63 °F 88 °F (2010)
Min Temperature 28 °F 41 °F 20 °F (1923)
Degree Days  
Heating Degree Days 26 14  
Month to date heating degree days 28  
Since 1 July heating degree days 4125  
Cooling Degree Days 0 1  
Month to date cooling degree days 1  
Year to date cooling degree days 6  
Moisture  
Dew Point 16 °F    
Average Humidity 41    
Maximum Humidity 75    
Minimum Humidity 24    
Precipitation  
Precipitation 0.00 in 0.12 in 1.16 in (1956)
Month to date precipitation 0.23  
Year to date precipitation 10.17  
Snow  
Snow 0.00 in - - ()
Month to date snowfall  
Since 1 September snowfall  
Snow Depth -    
Sea Level Pressure  
Sea Level Pressure 30.20 in    
Wind  
Wind Speed 3 mph (WNW)    
Max Wind Speed 12 mph    
Max Gust Speed 20 mph    
Visibility 10 miles    
Events      
T = Trace of Precipitation, MM = Missing Value Source: NWS Daily Summary

Daily Weather History Graph

Daily Weather History Graph

Search for Another Location

Airport or City:

Trip Planner

Search our weather history database for the weather conditions in past years. The results will help you decide how hot, cold, wet, or windy it might be!

Date:

Astronomy

Apr. 02, 2013 Rise Set
Actual Time 7:11 AM EDT 7:53 PM EDT
Civil Twilight 6:44 AM EDT 8:20 PM EDT
Nautical Twilight 6:12 AM EDT 8:52 PM EDT
Astronomical Twilight 5:39 AM EDT 9:24 PM EDT
Moon 1:54 AM EDT (4/2) 12:02 PM EDT (4/2)
Length of Visible Light 13h 35m
Length of Day
12h 42m
Waning Gibbous, 56% of the Moon is Illuminated
Apr 2
Waning Gibbous
Apr 3
Last Quarter
Apr 10
New
Apr 18
First Quarter
Apr 25
Full

Hourly Weather History & Observations

Time (EDT) Temp. Windchill Dew Point Humidity Pressure Visibility Wind Dir Wind Speed Gust Speed Precip Events Conditions
12:15 AM 35.6 °F 32.8 °F 21.2 °F 56% 30.10 in 10.0 mi WNW 3.5 mph - N/A   Clear
12:35 AM 33.8 °F - 21.2 °F 60% 30.11 in 10.0 mi Calm Calm - N/A   Clear
12:55 AM 33.8 °F - 23.0 °F 65% 30.11 in 10.0 mi Calm Calm - N/A   Clear
1:15 AM 33.8 °F - 23.0 °F 65% 30.11 in 10.0 mi Calm Calm - N/A   Clear
1:35 AM 33.8 °F - 23.0 °F 65% 30.11 in 10.0 mi Calm Calm - N/A   Clear
1:55 AM 32.0 °F - 23.0 °F 69% 30.11 in 10.0 mi Calm Calm - N/A   Clear
2:15 AM 32.0 °F - 23.0 °F 69% 30.12 in 10.0 mi Calm Calm - N/A   Clear
2:35 AM 30.2 °F - 23.0 °F 75% 30.12 in 10.0 mi Calm Calm - N/A   Clear
2:55 AM 33.8 °F 30.8 °F 19.4 °F 56% 30.13 in 10.0 mi NNW 3.5 mph - N/A   Clear
3:15 AM 33.8 °F 30.8 °F 17.6 °F 52% 30.13 in 10.0 mi North 3.5 mph - N/A   Clear
3:35 AM 33.8 °F - 17.6 °F 52% 30.14 in 10.0 mi Calm Calm - N/A   Clear
3:55 AM 32.0 °F - 19.4 °F 60% 30.14 in 10.0 mi Calm Calm - N/A   Clear
4:15 AM 32.0 °F - 17.6 °F 55% 30.14 in 10.0 mi Calm Calm - N/A   Clear
4:35 AM 32.0 °F 27.5 °F 15.8 °F 51% 30.15 in 10.0 mi North 4.6 mph - N/A   Clear
4:55 AM 32.0 °F - 15.8 °F 51% 30.16 in 10.0 mi Calm Calm - N/A   Clear
5:15 AM 32.0 °F 28.7 °F 15.8 °F 51% 30.16 in 10.0 mi North 3.5 mph - N/A   Clear
5:35 AM 32.0 °F - 15.8 °F 51% 30.17 in 10.0 mi Calm Calm - N/A   Clear
5:55 AM 30.2 °F - 17.6 °F 60% 30.19 in 10.0 mi Calm Calm - N/A   Clear
6:15 AM 30.2 °F - 15.8 °F 55% 30.20 in 10.0 mi Calm Calm - N/A   Clear
6:35 AM 30.2 °F 26.7 °F 15.8 °F 55% 30.21 in 10.0 mi NW 3.5 mph - N/A   Clear
6:55 AM 30.2 °F - 15.8 °F 55% 30.21 in 10.0 mi Calm Calm - N/A   Clear
7:15 AM 28.4 °F - 17.6 °F 64% 30.22 in 10.0 mi Calm Calm - N/A   Clear
7:35 AM 28.4 °F 24.6 °F 17.6 °F 64% 30.23 in 10.0 mi West 3.5 mph - N/A   Clear
7:55 AM 32.0 °F - 15.8 °F 51% 30.24 in 10.0 mi Calm Calm - N/A   Clear
8:15 AM 32.0 °F - 14.0 °F 48% 30.25 in 10.0 mi Calm Calm - N/A   Clear
8:35 AM 33.8 °F - 14.0 °F 44% 30.25 in 10.0 mi Calm Calm - N/A   Clear
8:55 AM 33.8 °F - 14.0 °F 44% 30.26 in 10.0 mi Calm Calm - N/A   Clear
9:15 AM 33.8 °F - 14.0 °F 44% 30.26 in 10.0 mi Calm Calm - N/A   Clear
9:35 AM 35.6 °F 30.7 °F 8.6 °F 33% 30.27 in 10.0 mi NE 5.8 mph - N/A   Clear
9:55 AM 37.4 °F 34.9 °F 10.4 °F 33% 30.27 in 10.0 mi East 3.5 mph - N/A   Clear
10:35 AM 41.0 °F 38.0 °F 15.8 °F 36% 30.27 in 10.0 mi WNW 4.6 mph - N/A   Clear
10:55 AM 41.0 °F 39.0 °F 14.0 °F 33% 30.27 in 10.0 mi WNW 3.5 mph - N/A   Clear
11:15 AM 42.8 °F 40.1 °F 14.0 °F 31% 30.27 in 10.0 mi SW 4.6 mph - N/A   Clear
11:35 AM 42.8 °F - 15.8 °F 34% 30.27 in 10.0 mi Calm Calm - N/A   Clear
11:55 AM 44.6 °F 42.2 °F 17.6 °F 34% 30.27 in 10.0 mi NW 4.6 mph - N/A   Clear
12:15 PM 44.6 °F 40.7 °F 14.0 °F 29% 30.27 in 10.0 mi West 6.9 mph - N/A   Clear
12:35 PM 44.6 °F 40.2 °F 17.6 °F 34% 30.26 in 10.0 mi WNW 8.1 mph - N/A   Scattered Clouds
12:55 PM 46.4 °F 43.5 °F 15.8 °F 29% 30.25 in 10.0 mi WSW 5.8 mph - N/A   Clear
1:15 PM 46.4 °F 41.9 °F 15.8 °F 29% 30.24 in 10.0 mi WNW 9.2 mph - N/A   Clear
1:35 PM 48.2 °F - 17.6 °F 30% 30.24 in 10.0 mi WSW 6.9 mph - N/A   Clear
1:55 PM 46.4 °F 42.9 °F 14.0 °F 27% 30.23 in 10.0 mi WNW 6.9 mph 17.3 mph N/A   Clear
2:15 PM 50.0 °F - 15.8 °F 26% 30.22 in 10.0 mi WSW 8.1 mph 19.6 mph N/A   Clear
2:35 PM 48.2 °F - 15.8 °F 27% 30.21 in 10.0 mi WSW 6.9 mph - N/A   Clear
2:55 PM 50.0 °F - 17.6 °F 28% 30.20 in 10.0 mi WNW 8.1 mph - N/A   Clear
3:15 PM 50.0 °F - 15.8 °F 26% 30.20 in 10.0 mi West 10.4 mph 16.1 mph N/A   Clear
3:35 PM 50.0 °F - 17.6 °F 28% 30.19 in 10.0 mi West 8.1 mph 16.1 mph N/A   Clear
3:55 PM 50.0 °F - 15.8 °F 26% 30.18 in 10.0 mi West 5.8 mph - N/A   Clear
4:15 PM 50.0 °F - 17.6 °F 28% 30.18 in 10.0 mi WSW 9.2 mph 16.1 mph N/A   Scattered Clouds
4:35 PM 51.8 °F - 17.6 °F 26% 30.17 in 10.0 mi WSW 9.2 mph - N/A   Scattered Clouds
4:55 PM 50.0 °F - 17.6 °F 28% 30.17 in 10.0 mi WSW 6.9 mph - N/A   Scattered Clouds
5:15 PM 50.0 °F - 15.8 °F 26% 30.17 in 10.0 mi WNW 6.9 mph - N/A   Scattered Clouds
5:35 PM 50.0 °F - 15.8 °F 26% 30.17 in 10.0 mi West 6.9 mph - N/A   Scattered Clouds
5:55 PM 50.0 °F - 14.0 °F 24% 30.17 in 10.0 mi NW 5.8 mph - N/A   Scattered Clouds
6:15 PM 50.0 °F - 14.0 °F 24% 30.18 in 10.0 mi West 9.2 mph - N/A   Scattered Clouds
6:35 PM 48.2 °F - 14.0 °F 25% 30.18 in 10.0 mi WSW 11.5 mph - N/A   Scattered Clouds
6:55 PM 46.4 °F 44.3 °F 14.0 °F 27% 30.18 in 10.0 mi West 4.6 mph - N/A   Clear
7:15 PM 46.4 °F 44.3 °F 14.0 °F 27% 30.18 in 10.0 mi West 4.6 mph - N/A   Scattered Clouds
7:35 PM 44.6 °F 42.2 °F 14.0 °F 29% 30.18 in 10.0 mi West 4.6 mph - N/A   Clear
7:55 PM 44.6 °F 42.2 °F 14.0 °F 29% 30.19 in 10.0 mi WNW 4.6 mph - N/A   Clear
8:15 PM 42.8 °F - 14.0 °F 31% 30.19 in 10.0 mi Calm Calm - N/A   Clear
8:35 PM 41.0 °F - 15.8 °F 36% 30.19 in 10.0 mi Calm Calm - N/A   Clear
8:55 PM 41.0 °F 39.0 °F 15.8 °F 36% 30.20 in 10.0 mi WNW 3.5 mph - N/A   Clear
9:15 PM 41.0 °F - 14.0 °F 33% 30.21 in 10.0 mi Calm Calm - N/A   Clear
9:35 PM 41.0 °F - 15.8 °F 36% 30.22 in 10.0 mi Calm Calm - N/A   Clear
9:55 PM 39.2 °F - 17.6 °F 42% 30.23 in 10.0 mi Calm Calm - N/A   Clear
10:15 PM 39.2 °F - 15.8 °F 39% 30.23 in 10.0 mi Calm Calm - N/A   Clear
10:35 PM 39.2 °F - 14.0 °F 36% 30.24 in 10.0 mi Calm Calm - N/A   Clear
10:55 PM 37.4 °F - 15.8 °F 41% 30.24 in 10.0 mi Calm Calm - N/A   Clear
11:15 PM 37.4 °F - 15.8 °F 41% 30.25 in 10.0 mi Calm Calm - N/A   Clear
11:35 PM 37.4 °F - 15.8 °F 41% 30.26 in 10.0 mi Calm Calm - N/A   Clear
11:55 PM 37.4 °F - 17.6 °F 45% 30.26 in 10.0 mi Calm Calm - N/A   Clear